Location: Wawayanda State Park
(41.1833°N, 74.4333°W)
Time: 21:41:25
(UTC-04:00)

Landsat 7 - Visible Passes

Search period start: 26 June 2017 00:00
Search period end: 06 July 2017 00:00
Orbit: 702 x 703 km, 98.2° (Epoch: 26 June)

Date Brightness Start Highest point End Pass type
(mag) Time Alt. Az. Time Alt. Az. Time Alt. Az.
26 Jun 4.4 22:08:35 22° SE 22:11:17 42° ENE 22:15:46 10° N visible
26 Jun 5.7 23:47:28 17° WSW 23:49:11 20° W 23:52:40 10° NW visible
27 Jun 5.9 21:14:34 10° E 21:16:49 13° ENE 21:19:04 10° NNE visible
27 Jun 3.9 22:51:51 33° S 22:53:57 72° WSW 22:58:43 10° NNW visible
28 Jun 4.8 21:56:14 17° ESE 21:59:08 32° ENE 22:03:22 10° N visible
28 Jun 5.4 23:35:07 21° SW 23:36:52 26° W 23:40:52 10° NW visible
29 Jun 3.7 22:39:31 32° SSE 22:41:44 86° ENE 22:46:31 10° NNW visible
30 Jun 5.2 21:43:53 13° ESE 21:47:01 25° ENE 21:50:53 10° NNE visible
30 Jun 5.0 23:22:46 26° SW 23:24:35 34° W 23:28:56 10° NNW visible
01 Jul 3.9 22:27:09 29° SSE 22:29:31 65° ENE 22:34:15 10° N visible
02 Jul 6.2 00:06:03 11° WSW 00:07:42 13° W 00:09:52 10° WNW visible
02 Jul 5.5 21:31:33 10° ESE 21:34:54 20° ENE 21:38:18 10° NNE visible
02 Jul 4.5 23:10:26 30° SSW 23:12:18 46° W 23:16:54 10° NNW visible
03 Jul 4.2 22:14:49 24° SE 22:17:21 49° ENE 22:21:57 10° N visible
03 Jul 5.9 23:53:43 15° WSW 23:55:21 17° W 23:58:30 10° NW visible
04 Jul 5.8 21:20:08 10° E 21:22:50 15° ENE 21:25:33 10° NNE visible
04 Jul 4.1 22:58:06 34° SSW 23:00:03 62° WSW 23:04:47 10° NNW visible
05 Jul 4.6 22:02:30 20° SE 22:05:11 37° ENE 22:09:34 10° N visible
05 Jul 5.6 23:41:23 19° WSW 23:43:01 23° W 23:46:47 10° NW visible
